sat.trackr.live / text

‹ back to catalog

STARLINK-36342

NORAD 67649 · 2026-022B

PAYLOAD ACTIVE UNKNOWN

§ Identity

Operator
Country
US
Launch date
2026-02-02
Launch site
AFWTR
Launch vehicle
Mass (kg)
RCS (m²)

Purposes: comms

External: N2YO · Heavens-Above · Gunter

§ Orbital elements

Epoch: 2026-09-19T08:00:22.271040Z

Period
93.91 min
Inclination
97.2856°
Eccentricity
0.0000847
Mean motion
15.33437454 rev/d
Perigee alt
465.0 km
Apogee alt
466.1 km
Semi-major
6,843.7 km
B*
4.1221e-4
RAAN
294.9060°
Arg perigee
102.4709°
Mean anomaly
257.6629°
Rev number
3,531

§ Raw data

STARLINK-363421 67649U 26022B   26262.33359110  .00013253  00000+0  41221-3 0  99932 67649  97.2856 294.9060 0000847 102.4709 257.6629 15.33437454 35311

JSON: /api/v1/satellites/67649 · /tle

For live sub-satellite position, see the globe view (requires WebGL).

§ Visibility from observer

Set your observer location to see the next 7 days of passes ≥ 10°. The values pass through the URL so the page stays shareable.

No JS? Fill the form by hand. The geolocation button needs JavaScript.